[Date Prev][Date Next][Thread Prev][Thread Next] - [Date Index][Thread Index][Author Index]
ISS Keps 11-7
- Subject: [sarex] ISS Keps 11-7
- From: "Dave Larsen PhD" <doc@xxxxxxxxxxx>
- Date: Wed, 7 Nov 2007 02:51:07 -0800
ISS
1 25544U 98067A 07311.41791212 .00026249 00000-0 16940-3 0 3090
2 25544 051.6369 085.3634 0002242 152.6061 245.2706 15.75932684513377
----
Sent via sarex@amsat.org. Opinions expressed are those of the author.
Not an AMSAT member? Join now to support the amateur satellite program!
Subscription settings: http://amsat.org/mailman/listinfo/sarex
AMSAT Home